Temp
57 57 57 57 57 57 57 57 57 57 58 59 58 58 58 58 57 61 65 67 62 61 65 65 65 63 65 63 60 65 63 63 64 57 60 61 58 62 59 62 59 59 59 59 60 55 53 79 76 67 73 77 77 77
57 56 56 56 56 56 56 56 57 57 58 58 59 58 58 57 57 57 64 68 67 55 63 67 66 68 67 68 65 66 64 62 67 61 62 62 58 61 57 51 66 56 61 60 63 65 74 75 76 76 78 76 76 75
56 56 56 56 56 56 56 57 57 57 58 58 58 58 57 57 57 56 60 63 62 59 64 65 68 71 71 69 73 60 67 67 66 69 62 61 52 60 52 54 56 62 67 62 63 68 71 75 78 79 78 78 78 79
55 55 55 55 56 56 56 57 57 57 57 58 58 58 57 57 57 56 55 61 59 56 45 66 74 68 74 72 68 69 69 71 69 66 59 55 50 55 45 51 49 55 56 54 59 67 70 72 76 76 77 79 78 79
55 55 55 56 56 56 56 57 57 57 57 58 58 57 57 57 56 57 58 61 60 54 56 61 67 72 72 71 68 67 66 64 59 55 53 47 51 46 45 46 45 53 53 52 53 65 67 69 75 78 77 77 77 75
55 55 55 55 55 56 56 56 57 57 57 57 57 57 57 56 55 57 55 58 58 57 45 50 70 67 69 69 65 65 66 64 61 55 49 49 52 44 40 40 52 53 55 58 57 65 69 71 74 77 75 75 76 75
55 55 55 55 55 56 56 56 56 56 56 56 57 56 56 55 55 54 54 56 56 58 45 48 61 72 69 69 70 68 68 64 58 49 44 45 47 45 43 39 51 53 53 53 56 59 59 66 68 74 74 75 73 75
54 54 54 55 55 55 55 56 56 56 56 56 56 55 55 54 53 53 63 55 58 53 49 46 55 64 69 67 66 69 54 56 49 46 48 46 49 46 42 49 51 52 53 53 55 58 64 69 71 72 73 74 72 72
54 54 54 54 55 55 55 55 55 55 55 55 55 55 58 55 53 57 57 55 56 48 46 49 50 56 71 66 67 66 63 48 50 45 50 50 47 43 47 50 51 52 52 54 57 55 62 67 70 71 72 72 71 71
54 54 54 54 54 55 55 55 55 55 55 54 55 57 52 55 55 55 51 47 45 46 47 45 59 56 65 64 62 61 59 49 47 54 55 47 48 53 52 54 55 55 56 60 53 51 57 64 68 70 71 73 73 74
54 54 54 54 54 54 55 55 55 54 53 57 55 59 64 56 54 52 50 47 46 43 50 53 58 58 70 56 54 60 49 50 45 49 47 49 48 52 57 55 57 58 64 61 60 59 67 70 70 70 71 73 73 72
53 54 54 54 54 54 54 54 54 54 55 55 57 60 63 57 55 50 51 54 49 47 59 59 63 64 63 64 50 55 47 49 45 57 49 51 54 57 58 56 57 58 64 64 64 64 68 69 71 72 71 71 73 71
53 53 54 54 54 54 54 54 54 53 53 54 54 49 55 54 40 45 46 52 50 59 64 64 62 67 61 55 50 49 47 48 57 52 48 57 59 61 60 58 57 59 61 62 66 67 68 70 70 70 70 69 69 67
53 53 53 53 54 54 54 54 54 52 51 47 47 38 48 48 52 57 59 61 67 66 66 66 64 64 65 50 52 47 51 53 53 47 48 60 59 62 62 59 57 57 60 60 60 60 61 65 64 67 67 66 70 68
53 53 53 54 54 54 54 54 53 53 50 49 52 41 53 61 64 67 67 65 68 69 66 65 66 64 52 48 50 49 49 48 50 46 54 60 61 62 64 59 57 57 59 60 60 60 61 62 62 63 63 63 64 63
53 53 55 54 54 54 53 53 52 52 47 44 48 53 61 59 61 63 63 64 71 68 68 65 61 56 50 51 48 49 46 46 49 52 58 63 62 62 62 66 62 59 62 61 61 60 60 60 61 61 61 62 62 61
52 54 54 53 53 52 52 52 48 44 48 51 55 63 61 60 60 63 65 67 70 64 61 64 55 55 59 50 46 49 46 48 52 54 55 60 61 61 66 65 66 66 60 63 64 63 61 61 61 61 60 60 61 61
55 54 53 53 53 51 50 51 47 46 45 53 55 60 63 63 61 64 66 67 65 64 63 60 64 57 53 47 46 50 51 55 58 59 63 63 64 66 67 68 68 69 70 68 65 63 66 65 63 60 60 62 62 63
55 54 53 53 51 49 46 46 48 46 53 59 60 62 61 62 65 66 66 67 67 66 64 64 58 57 56 60 57 52 54 55 54 58 61 66 62 62 68 70 71 70 70 69 71 69 66 67 69 69 68 68 65 68
53 53 53 53 52 46 44 44 49 44 50 56 60 59 61 61 65 66 66 66 63 62 59 59 62 66 64 67 65 58 56 58 56 61 58 59 62 64 69 70 71 73 73 72 71 62 74 73 74 74 72 70 71 67
51 52 52 52 48 47 46 47 45 48 54 53 59 58 58 64 61 61 62 66 61 61 62 68 69 71 71 66 62 59 57 61 57 60 61 63 67 75 73 73 73 73 72 71 71 68 67 71 72 74 74 72 70 68
49 52 48 49 45 45 43 51 49 52 53 56 52 56 55 56 59 61 66 61 62 66 69 70 70 68 65 62 61 59 59 60 67 67 57 61 68 72 73 73 72 70 70 70 68 64 67 70 71 69 70 70 69 73
51 50 47 46 42 41 43 55 44 49 45 46 53 51 55 57 62 65 61 66 69 73 74 70 65 65 64 64 61 59 58 64 67 67 68 68 74 75 74 73 73 71 68 68 69 66 64 56 58 64 64 68 67 67
50 46 43 43 42 39 49 44 49 49 51 46 50 51 56 61 63 61 61 67 71 74 71 63 64 63 64 60 57 57 61 66 67 69 72 76 73 72 73 73 72 72 72 72 71 66 64 64 59 70 68 67 68 69
39 40 41 35 44 40 41 43 43 47 46 52 51 54 59 62 56 57 58 65 70 71 71 67 64 66 65 61 58 59 64 60 61 66 72 76 69 74 73 72 72 72 74 72 71 71 70 63 68 71 73 72 71 71
35 43 38 42 42 40 40 40 45 49 52 51 54 60 63 59 55 55 60 61 64 68 71 68 67 68 65 65 57 60 66 73 73 67 73 77 74 75 73 71 70 70 75 74 73 71 71 72 72 71 70 68 57 72
36 41 44 48 44 43 43 48 53 52 50 51 57 57 58 52 52 57 66 65 64 69 72 71 70 74 64 62 68 70 66 62 69 75 77 79 80 80 79 75 71 72 76 76 75 74 72 73 73 73 73 74 75 75
44 45 40 42 41 45 43 50 50 50 54 62 60 53 52 54 55 68 71 74 75 76 75 73 73 75 71 70 71 66 72 76 77 78 78 79 80 80 79 78 76 53 76 78 77 77 77 76 75 75 75 75 75 77
41 47 45 41 43 46 50 52 55 62 64 62 57 58 60 67 69 71 73 75 78 76 76 71 73 77 74 74 74 74 78 78 73 69 70 71 72 74 77 76 76 77 77 76 46 63 75 77 77 78 77 78 78 80
45 52 44 45 45 49 57 60 59 66 66 66 66 66 67 70 71 77 74 75 73 75 78 75 72 75 73 75 74 73 79 81 83 80 76 75 74 77 77 78 77 78 78 77 76 73 49 70 65 78 77 79 79 79
52 50 48 50 52 58 61 64 66 66 64 64 67 64 64 68 72 76 77 77 77 78 77 73 72 72 73 75 74 73 74 80 79 79 82 81 80 79 78 79 79 80 79 79 78 79 78 78 78 77 74 69 71 73
48 46 47 47 53 62 64 61 60 60 62 63 64 67 67 66 64 73 76 75 75 75 64 67 70 68 71 74 77 80 50 82 80 81 80 81 80 80 80 81 81 81 80 79 79 79 77 78 77 76 77 73 73 75
49 50 51 51 53 54 61 59 59 58 62 62 63 66 67 66 63 74 76 80 77 77 72 73 68 68 71 72 75 76 61 81 70 56 53 57 59 67 80 82 82 80 80 79 79 79 77 75 74 75 76 75 73 74
MSLP
1028.45 1028.25 1028.04 1027.88 1027.66 1027.25 1026.98 1026.63 1026.27 1025.90 1025.46 1025.15 1025.02 1024.91 1024.75 1024.65 1024.44 1023.87 1023.00 1023.16 1022.57 1020.59 1018.28 1017.93 1017.84 1017.13 1016.48 1016.36 1015.36 1014.88 1014.83 1014.18 1013.63 1012.63 1011.32 1010.16 1009.57 1008.93 1008.35 1007.84 1007.19 1006.43 1005.41 1004.34 1003.75 1002.74 1000.87 1000.92 1000.70 1000.79 1000.63 1000.90 1001.32 1001.81
1028.09 1028.00 1027.85 1027.63 1027.41 1027.10 1026.76 1026.36 1025.95 1025.56 1025.21 1024.89 1024.69 1024.61 1024.54 1024.49 1024.51 1024.44 1022.84 1023.10 1022.99 1022.37 1019.03 1018.53 1018.08 1017.76 1017.35 1016.74 1016.38 1015.52 1014.66 1014.55 1013.61 1012.98 1012.46 1011.89 1010.91 1010.15 1009.31 1007.98 1007.90 1006.79 1006.16 1004.85 1003.47 1001.36 1001.21 1001.51 1000.96 1001.51 1001.57 1001.49 1002.01 1002.25
1027.93 1027.72 1027.57 1027.39 1027.12 1026.84 1026.52 1026.14 1025.68 1025.28 1024.91 1024.63 1024.40 1024.28 1024.29 1024.31 1024.43 1024.45 1023.60 1023.25 1022.55 1020.77 1018.39 1017.39 1016.03 1016.39 1017.04 1017.09 1016.87 1016.22 1014.57 1014.75 1014.56 1014.53 1013.94 1013.09 1012.38 1011.70 1010.62 1009.30 1008.64 1007.42 1006.88 1005.58 1004.32 1002.45 1001.88 1001.69 1001.69 1001.71 1002.06 1001.91 1002.14 1002.30
1027.75 1027.49 1027.22 1027.00 1026.76 1026.46 1026.15 1025.74 1025.34 1024.98 1024.59 1024.28 1024.10 1023.98 1023.98 1024.08 1024.14 1024.25 1023.89 1023.42 1023.30 1022.15 1020.26 1015.93 1015.65 1015.72 1015.76 1016.10 1016.40 1016.17 1015.38 1015.07 1015.26 1015.43 1015.17 1014.73 1014.07 1013.64 1012.52 1011.24 1010.14 1009.10 1008.15 1006.99 1004.32 1002.94 1002.57 1001.55 1001.48 1001.72 1002.13 1001.99 1001.84 1002.04
1027.39 1027.14 1026.81 1026.47 1026.23 1025.97 1025.70 1025.37 1025.04 1024.66 1024.24 1023.95 1023.71 1023.57 1023.58 1023.73 1023.77 1023.73 1023.40 1023.05 1023.30 1022.99 1020.44 1016.91 1015.62 1014.54 1014.71 1014.92 1015.19 1015.60 1015.49 1015.33 1015.42 1015.61 1015.55 1015.35 1014.89 1014.81 1013.71 1012.72 1009.85 1008.83 1007.56 1006.28 1003.44 1003.31 1002.07 1001.43 1001.41 1001.44 1001.27 1001.20 1001.77 1001.94
1026.92 1026.64 1026.38 1026.10 1025.74 1025.43 1025.22 1024.95 1024.66 1024.38 1024.03 1023.68 1023.40 1023.31 1023.30 1023.40 1023.48 1023.11 1022.38 1023.10 1023.30 1023.59 1022.22 1018.78 1015.06 1014.14 1014.26 1014.38 1014.56 1014.55 1014.81 1014.84 1015.43 1015.61 1015.99 1015.58 1015.08 1015.42 1013.83 1011.39 1008.20 1007.69 1007.14 1005.95 1003.93 1003.35 1002.50 1001.74 1001.28 1001.01 1001.16 1001.50 1001.88 1002.03
1026.43 1026.16 1025.95 1025.71 1025.37 1024.93 1024.70 1024.48 1024.25 1023.98 1023.68 1023.38 1023.17 1023.16 1023.15 1023.26 1023.25 1022.84 1022.69 1022.72 1023.17 1023.28 1022.49 1019.43 1015.15 1013.41 1013.54 1013.49 1013.07 1013.28 1013.68 1014.22 1015.09 1015.92 1015.80 1014.96 1014.18 1014.50 1012.61 1010.10 1006.65 1005.59 1005.25 1004.48 1003.82 1003.33 1001.76 1001.64 1000.65 1000.79 1001.09 1001.46 1001.77 1001.77
1025.94 1025.66 1025.45 1025.20 1025.01 1024.63 1024.24 1023.98 1023.75 1023.52 1023.32 1023.10 1022.86 1022.85 1022.90 1023.04 1023.07 1022.57 1021.51 1022.75 1022.93 1022.83 1022.14 1019.73 1015.73 1013.41 1013.19 1012.12 1011.53 1012.13 1013.54 1014.12 1015.14 1015.24 1014.47 1013.52 1012.85 1012.57 1010.52 1006.95 1005.32 1004.25 1003.11 1002.29 1001.58 1001.36 1000.85 1000.57 1000.30 1000.24 1000.67 1000.89 1001.08 1001.13
1025.34 1025.13 1024.86 1024.62 1024.46 1024.24 1023.88 1023.60 1023.35 1023.15 1022.92 1022.66 1022.68 1022.65 1022.38 1022.46 1022.14 1021.74 1022.01 1022.52 1022.90 1023.28 1021.35 1019.25 1016.34 1013.28 1012.89 1012.05 1011.90 1012.01 1012.52 1013.34 1013.72 1013.72 1012.47 1012.05 1011.14 1010.19 1007.12 1005.61 1004.18 1002.21 1000.69 999.13 998.30 998.53 999.42 999.01 999.05 999.58 1000.04 1000.35 1000.51 1000.71
1024.73 1024.57 1024.31 1024.05 1023.84 1023.65 1023.48 1023.25 1022.96 1022.75 1022.62 1022.45 1022.46 1021.76 1021.20 1021.50 1022.04 1022.30 1022.18 1022.43 1022.75 1022.23 1021.08 1018.75 1016.23 1013.88 1013.28 1012.20 1011.65 1011.84 1012.01 1012.47 1012.18 1011.46 1011.22 1010.90 1009.18 1007.20 1006.11 1004.65 1001.96 1000.32 998.61 996.98 996.66 997.73 998.35 998.01 998.43 998.97 999.51 1000.01 1000.24 1000.27
1024.26 1024.01 1023.87 1023.52 1023.24 1023.04 1022.98 1022.79 1022.60 1022.44 1022.26 1021.89 1021.20 1020.07 1020.50 1021.42 1021.61 1021.30 1020.49 1020.54 1020.43 1019.81 1018.68 1016.79 1015.23 1013.72 1012.80 1013.13 1012.66 1012.58 1012.54 1012.08 1011.60 1010.90 1010.43 1009.05 1007.63 1006.50 1004.81 1003.54 1001.19 1000.28 999.07 998.38 998.37 998.61 998.50 998.23 998.41 998.79 999.33 999.71 1000.05 1000.33
1023.87 1023.44 1023.26 1023.00 1022.73 1022.49 1022.35 1022.30 1022.28 1022.36 1021.92 1021.78 1021.47 1021.04 1020.70 1020.12 1019.65 1019.27 1018.32 1017.79 1017.56 1016.51 1015.15 1014.21 1013.31 1013.40 1013.28 1013.91 1013.79 1012.89 1012.38 1011.68 1010.69 1010.02 1009.57 1007.70 1006.68 1005.85 1004.80 1003.32 1002.47 1001.05 999.71 999.22 999.07 999.03 998.89 998.82 998.76 998.96 999.46 999.68 999.90 1000.80
1023.29 1023.02 1022.48 1022.36 1022.21 1021.97 1021.81 1021.77 1021.76 1021.98 1022.03 1021.81 1021.27 1020.58 1019.20 1018.44 1018.02 1016.88 1015.45 1014.78 1014.62 1013.93 1013.05 1012.46 1012.00 1012.08 1013.20 1014.04 1013.56 1012.94 1011.79 1010.53 1010.01 1009.32 1008.81 1007.32 1006.69 1005.67 1004.82 1003.98 1003.12 1001.74 1000.92 1000.16 999.65 999.58 999.28 999.12 999.26 999.59 999.74 1000.11 1000.88 1001.76
1022.58 1022.43 1021.87 1021.59 1021.54 1021.37 1021.24 1021.30 1021.48 1021.97 1021.96 1021.20 1019.98 1018.99 1017.61 1016.03 1014.98 1013.72 1013.12 1012.46 1012.33 1012.36 1011.94 1011.68 1011.23 1011.47 1011.73 1013.16 1012.67 1012.24 1011.32 1010.69 1009.07 1009.00 1008.51 1007.43 1006.91 1006.01 1005.04 1004.62 1003.78 1002.89 1001.93 1000.75 1000.06 999.51 1000.10 999.85 1000.18 1000.31 1000.70 1001.12 1001.64 1002.42
1022.08 1021.81 1021.18 1020.79 1020.50 1020.54 1020.46 1020.67 1021.18 1021.60 1021.41 1020.32 1018.94 1016.70 1014.86 1013.79 1013.33 1012.91 1012.67 1012.47 1012.13 1012.06 1011.88 1011.03 1010.47 1011.24 1012.09 1012.68 1012.45 1011.89 1011.25 1010.58 1009.90 1009.96 1009.15 1007.97 1007.32 1006.53 1005.72 1005.10 1004.51 1003.80 1002.97 1002.14 1000.98 1001.18 1000.68 1000.07 1000.74 1001.63 1002.20 1002.74 1003.25 1003.84
1021.79 1021.15 1020.33 1020.30 1020.19 1020.19 1020.44 1020.88 1021.32 1021.49 1021.00 1019.98 1018.15 1015.27 1013.72 1013.38 1012.44 1012.25 1012.17 1011.90 1011.79 1011.79 1011.69 1011.22 1010.37 1010.50 1011.52 1011.86 1011.92 1011.71 1011.65 1011.15 1010.79 1010.38 1009.77 1008.77 1007.69 1007.05 1006.48 1005.86 1005.33 1004.98 1004.10 1003.46 1002.89 1002.57 1001.89 1001.60 1001.91 1003.10 1003.24 1003.94 1004.39 1004.94
1021.52 1020.77 1020.54 1020.43 1020.30 1020.63 1020.83 1020.94 1021.24 1020.86 1019.68 1017.92 1015.61 1014.29 1013.91 1013.40 1012.66 1012.21 1012.08 1011.73 1012.14 1011.73 1010.78 1010.47 1009.94 1009.75 1010.79 1011.40 1012.00 1012.14 1012.14 1012.03 1011.25 1010.34 1009.68 1009.15 1008.36 1007.72 1006.79 1006.27 1005.97 1005.25 1005.19 1004.69 1004.21 1003.92 1003.92 1003.90 1004.05 1004.26 1004.59 1005.30 1005.71 1006.39
1020.87 1020.64 1020.72 1020.73 1020.69 1020.98 1021.02 1020.84 1020.61 1019.84 1018.40 1016.42 1014.77 1013.61 1013.10 1013.16 1012.56 1012.07 1011.97 1012.00 1012.02 1011.43 1011.18 1010.24 1010.27 1009.78 1010.13 1011.13 1011.68 1012.08 1011.95 1011.45 1010.68 1010.19 1009.25 1008.70 1008.37 1007.66 1006.99 1006.50 1006.22 1005.90 1005.51 1005.32 1005.52 1005.56 1005.04 1004.96 1005.20 1005.72 1006.11 1006.55 1006.84 1007.27
1020.61 1020.60 1020.76 1020.76 1020.81 1020.89 1020.75 1020.61 1020.29 1018.85 1016.73 1015.00 1014.12 1013.71 1013.29 1012.74 1012.30 1011.96 1011.79 1011.81 1011.89 1011.97 1011.47 1010.44 1009.71 1009.15 1009.69 1010.31 1010.91 1011.43 1011.41 1011.30 1010.68 1009.84 1009.01 1008.40 1008.18 1007.86 1006.97 1006.66 1006.42 1006.30 1006.10 1006.02 1005.74 1005.79 1006.19 1006.09 1006.00 1006.31 1006.60 1006.98 1007.38 1007.76
1020.37 1020.27 1020.22 1020.36 1020.77 1020.74 1020.42 1020.03 1019.97 1018.90 1016.32 1014.63 1014.06 1013.26 1012.71 1012.29 1011.58 1011.21 1011.18 1011.17 1011.50 1011.38 1010.60 1009.62 1008.64 1008.50 1008.87 1009.51 1010.32 1010.87 1011.06 1010.96 1010.55 1009.44 1008.82 1008.36 1008.16 1007.82 1007.39 1007.00 1006.76 1006.44 1006.29 1006.37 1006.54 1006.38 1006.27 1006.32 1006.40 1006.45 1006.79 1007.20 1007.75 1008.75
1019.92 1019.89 1020.21 1020.34 1020.68 1020.74 1020.31 1019.42 1018.71 1017.64 1015.76 1014.61 1013.51 1013.31 1012.29 1011.30 1011.03 1010.73 1010.46 1010.57 1010.54 1009.61 1008.83 1008.30 1008.10 1008.22 1008.72 1009.65 1010.16 1010.56 1010.71 1010.61 1010.40 1009.61 1008.85 1008.26 1007.91 1007.32 1007.24 1007.10 1007.05 1006.91 1006.73 1006.84 1006.93 1007.39 1007.30 1007.28 1007.41 1007.43 1007.53 1008.14 1008.90 1009.54
1020.00 1020.09 1020.37 1020.51 1020.46 1020.40 1019.84 1018.87 1018.05 1017.04 1016.05 1014.34 1014.17 1013.19 1011.83 1010.66 1010.05 1009.78 1009.66 1009.67 1008.76 1008.17 1007.99 1007.71 1007.92 1008.54 1009.10 1009.53 1009.95 1010.39 1010.48 1010.41 1009.62 1008.78 1008.45 1008.33 1007.63 1007.16 1007.13 1007.21 1007.21 1007.34 1007.62 1007.76 1008.05 1008.52 1008.60 1008.43 1008.81 1009.21 1009.22 1009.69 1009.82 1010.06
1020.08 1020.20 1020.25 1020.27 1020.17 1019.65 1018.73 1017.87 1017.63 1016.47 1015.49 1014.64 1013.49 1012.26 1010.86 1010.09 1009.59 1009.84 1008.82 1007.81 1007.21 1007.04 1007.21 1007.86 1008.44 1008.71 1008.96 1009.49 1009.78 1010.18 1010.09 1009.79 1008.93 1008.35 1008.03 1007.79 1007.42 1007.43 1007.55 1007.72 1007.70 1007.81 1008.17 1008.64 1008.82 1009.39 1009.81 1010.19 1010.33 1010.30 1010.46 1010.59 1010.94 1011.19
1020.05 1020.03 1019.75 1019.57 1019.47 1018.69 1017.94 1017.31 1016.74 1015.71 1014.83 1014.33 1012.53 1010.98 1009.81 1009.19 1009.37 1008.80 1007.50 1006.68 1006.46 1006.67 1007.17 1008.09 1008.32 1008.62 1009.26 1009.70 1009.95 1009.90 1009.66 1009.35 1008.65 1008.05 1007.77 1007.33 1007.35 1007.74 1007.95 1008.11 1008.44 1008.67 1008.86 1009.12 1009.46 1010.25 1010.54 1010.88 1010.85 1010.89 1011.18 1011.40 1011.60 1011.54
1020.11 1019.75 1019.53 1018.90 1018.49 1018.20 1017.26 1016.43 1015.72 1014.77 1013.57 1012.38 1011.41 1010.05 1009.09 1009.04 1008.41 1007.73 1006.92 1006.37 1006.42 1006.43 1006.82 1007.57 1008.01 1008.15 1008.52 1009.37 1009.64 1009.52 1009.35 1009.20 1008.68 1008.11 1007.74 1007.50 1008.00 1007.85 1008.13 1008.55 1008.95 1009.14 1009.27 1009.46 1009.86 1010.12 1010.69 1011.42 1011.31 1011.18 1011.09 1011.18 1011.50 1011.50
1019.27 1018.71 1018.64 1017.87 1017.56 1017.40 1016.55 1015.58 1014.32 1013.08 1012.16 1011.26 1010.25 1009.38 1008.85 1008.26 1007.66 1007.16 1007.31 1007.44 1007.03 1006.84 1006.84 1007.21 1007.37 1007.51 1008.00 1008.51 1009.06 1008.68 1008.69 1008.49 1008.24 1007.96 1007.76 1007.51 1007.84 1007.66 1007.83 1008.25 1008.86 1009.64 1009.79 1009.96 1010.25 1010.47 1010.66 1010.94 1011.22 1011.54 1011.87 1012.11 1012.11 1011.77
1018.51 1017.80 1017.67 1017.58 1017.40 1016.96 1016.12 1014.90 1013.63 1012.61 1011.40 1010.17 1009.31 1008.68 1008.14 1007.56 1007.34 1007.56 1007.40 1007.57 1007.28 1007.24 1007.22 1007.49 1007.45 1007.08 1007.77 1008.23 1008.22 1008.29 1008.55 1008.65 1008.41 1007.73 1007.84 1007.78 1007.85 1007.87 1007.86 1008.15 1008.96 1009.96 1010.16 1010.37 1010.53 1010.73 1010.97 1011.16 1011.34 1011.65 1011.83 1011.99 1012.11 1012.05
1017.80 1017.31 1017.04 1016.86 1016.70 1016.28 1015.19 1013.61 1012.24 1011.17 1010.35 1009.57 1009.17 1008.41 1007.98 1007.55 1007.47 1007.06 1006.92 1007.06 1007.14 1007.16 1007.24 1007.56 1007.66 1007.51 1007.70 1007.87 1007.99 1008.35 1008.28 1008.20 1008.11 1008.04 1008.13 1008.18 1008.35 1008.45 1008.68 1009.28 1010.14 1010.70 1010.62 1010.75 1010.95 1011.10 1011.20 1011.38 1011.57 1011.76 1011.91 1011.99 1012.14 1012.19
1017.22 1016.69 1016.68 1016.11 1015.74 1014.89 1013.55 1012.44 1011.08 1010.28 1010.06 1009.39 1008.96 1008.43 1008.14 1007.76 1007.56 1007.16 1007.03 1007.03 1007.08 1006.95 1006.65 1007.10 1007.45 1007.46 1007.64 1007.77 1007.88 1007.98 1007.76 1007.59 1007.68 1007.61 1007.58 1007.95 1008.36 1009.02 1009.73 1010.30 1010.57 1010.82 1011.31 1011.65 1011.99 1011.67 1011.62 1011.68 1011.84 1011.82 1011.95 1012.08 1012.28 1012.33
1016.13 1015.81 1015.67 1014.91 1014.08 1012.83 1011.67 1011.26 1010.60 1010.07 1009.88 1009.65 1009.40 1008.76 1008.12 1007.57 1007.45 1006.97 1007.00 1006.90 1006.78 1006.50 1006.48 1006.88 1007.39 1007.36 1007.39 1007.20 1007.36 1007.68 1007.65 1007.41 1006.95 1006.57 1006.73 1007.19 1008.25 1009.08 1009.72 1010.03 1010.48 1011.03 1011.40 1011.69 1012.02 1012.54 1012.81 1012.43 1012.52 1012.21 1012.04 1012.06 1012.16 1012.22
1015.26 1014.94 1014.54 1013.75 1012.48 1011.49 1010.94 1010.56 1010.16 1009.90 1009.67 1009.34 1008.95 1008.60 1008.04 1007.55 1007.16 1006.59 1006.64 1006.60 1006.53 1006.64 1006.68 1007.02 1007.41 1007.65 1007.53 1007.35 1007.31 1007.38 1007.37 1007.57 1007.74 1007.66 1007.17 1007.88 1008.55 1009.11 1009.67 1010.15 1010.58 1011.01 1011.29 1011.48 1011.65 1011.86 1012.11 1011.95 1011.97 1012.07 1012.53 1012.90 1012.83 1012.45
1014.71 1014.25 1013.67 1012.59 1011.52 1010.73 1010.41 1009.95 1009.52 1009.12 1008.67 1008.35 1008.03 1007.81 1007.66 1007.44 1006.95 1006.33 1006.55 1006.74 1006.40 1006.53 1007.10 1007.56 1007.49 1007.67 1007.85 1007.74 1007.50 1007.38 1008.43 1007.11 1007.56 1007.85 1008.17 1008.40 1008.96 1009.50 1010.01 1010.26 1010.63 1010.94 1011.24 1011.40 1011.46 1011.79 1012.05 1011.99 1012.16 1012.40 1012.25 1012.66 1012.81 1012.66
1013.52 1013.21 1012.81 1012.28 1011.14 1010.17 1009.42 1009.34 1008.79 1008.24 1007.73 1007.39 1007.14 1007.02 1006.86 1006.77 1006.61 1006.19 1006.66 1006.44 1006.49 1006.63 1007.26 1007.23 1007.67 1007.54 1007.60 1007.63 1007.50 1007.36 1007.78 1007.37 1007.87 1008.55 1008.81 1009.10 1009.45 1009.74 1009.94 1010.30 1010.66 1011.04 1011.28 1011.35 1011.57 1011.86 1012.14 1012.37 1012.50 1012.44 1012.50 1012.64 1012.83 1012.81
Wind_Speed
12 11 8 10 12 13 15 16 16 16 15 13 9 9 8 6 7 7 3 3 5 5 11 6 6 10 8 6 7 5 9 7 5 6 5 5 7 7 9 11 12 14 13 15 17 22 28 13 7 16 9 2 2 2
10 8 11 12 13 14 15 15 15 15 15 13 10 8 7 5 2 4 3 1 3 5 9 14 17 18 17 16 10 5 9 6 4 5 4 5 8 8 13 16 14 17 18 18 21 12 4 4 10 3 6 7 3 5
10 10 11 12 14 14 16 16 15 15 14 13 10 8 6 5 3 4 4 4 6 6 9 7 5 8 10 16 13 7 6 7 5 5 7 5 9 8 11 12 16 17 21 20 23 21 25 17 15 10 9 10 7 8
10 11 12 13 14 14 15 15 16 15 14 12 10 8 5 5 5 5 3 2 3 4 4 4 5 7 8 11 15 17 17 8 7 4 7 6 7 3 6 13 16 13 11 17 29 28 25 27 19 13 18 18 14 14
13 14 15 14 14 14 15 15 15 15 14 12 10 7 5 5 4 6 5 5 5 4 7 10 19 2 5 8 14 15 16 15 10 8 7 8 4 3 5 9 17 15 25 19 21 22 21 21 22 25 23 13 13 16
13 14 14 14 15 15 14 14 14 13 14 12 7 5 4 2 3 3 3 3 3 4 4 6 8 5 4 8 11 13 11 10 8 4 4 5 4 4 5 6 14 12 15 20 22 23 26 27 25 23 22 19 16 17
14 14 14 16 16 14 14 13 13 13 13 12 7 5 3 2 3 4 3 4 7 4 3 7 5 3 5 9 6 6 11 7 5 2 6 5 5 9 5 9 23 22 20 22 23 21 26 29 20 20 18 18 17 15
14 14 15 16 17 16 14 13 13 12 12 13 4 1 2 2 4 5 2 12 6 3 3 5 6 5 2 5 7 5 3 3 5 4 4 5 4 5 8 20 23 22 24 21 25 25 26 23 21 18 17 15 15 15
15 15 15 15 16 17 14 13 13 11 10 8 2 5 4 4 3 2 7 8 2 2 3 4 4 5 0 8 4 3 3 5 5 6 5 2 2 7 19 22 25 27 26 25 23 24 23 23 20 17 15 15 15 14
15 14 14 14 15 15 14 14 13 9 10 4 4 4 4 2 8 13 3 3 3 3 3 4 5 6 5 6 4 4 2 3 3 1 1 4 6 15 18 21 25 23 22 15 11 14 11 14 15 15 16 14 13 12
15 14 15 15 14 13 13 13 11 8 6 4 4 1 5 6 5 3 3 5 4 4 5 6 9 9 3 6 6 3 3 3 3 1 3 3 4 12 24 25 27 19 18 14 8 6 13 12 11 12 12 13 10 9
16 14 14 14 14 13 12 11 8 2 2 5 5 2 1 4 5 5 5 4 5 4 5 5 4 4 4 2 4 3 4 3 4 3 4 6 4 18 21 23 25 19 12 10 8 6 5 3 6 7 8 10 10 11
15 15 13 13 13 13 12 10 7 3 2 1 4 3 4 4 4 7 7 5 5 5 5 5 6 3 4 3 4 3 4 3 3 3 4 5 14 18 19 18 19 19 18 14 9 5 4 7 7 7 7 8 17 10
13 15 14 14 14 13 11 11 9 6 2 4 6 4 7 7 6 5 5 1 3 3 5 6 5 3 2 2 3 4 3 5 4 3 4 9 17 19 18 17 18 19 18 18 13 5 3 3 5 8 13 10 15 15
14 16 15 17 16 14 10 7 14 3 2 4 5 6 8 5 3 2 3 4 4 4 7 7 5 3 2 3 3 3 3 4 5 3 6 11 17 17 18 15 16 15 14 15 14 16 14 10 15 16 14 12 14 15
15 16 2 7 8 3 13 11 2 2 2 4 6 6 4 5 6 5 5 5 1 4 6 4 4 2 1 4 3 4 5 3 4 5 10 13 15 15 16 16 13 12 15 14 15 15 16 19 18 16 15 14 14 16
12 3 9 8 8 12 7 2 2 4 5 5 6 5 6 8 7 6 6 3 1 6 6 3 4 2 1 2 2 2 3 6 10 9 7 10 11 12 13 12 14 12 10 13 14 14 14 15 15 15 16 14 14 15
5 1 5 4 5 4 1 2 2 3 6 8 8 8 5 6 7 5 5 4 5 4 4 3 4 4 1 1 2 3 4 6 6 8 9 8 8 9 6 10 11 13 14 12 11 12 12 14 14 11 13 13 13 12
8 6 8 5 2 1 2 3 3 4 7 6 6 6 7 8 8 8 7 7 5 5 4 4 5 3 3 4 3 4 4 4 7 9 8 6 3 6 7 6 8 10 11 12 12 9 9 12 10 10 11 10 10 9
12 14 13 9 5 2 3 3 2 4 6 2 5 7 7 7 6 5 6 5 6 5 6 6 5 4 4 1 2 2 3 5 5 7 4 4 4 5 6 7 7 7 7 9 9 9 8 9 10 10 10 10 13 12
1 6 10 3 1 1 3 2 5 5 5 4 5 7 7 6 7 8 7 7 8 6 8 7 5 4 1 2 3 1 3 4 5 5 7 4 3 2 4 4 6 6 7 7 8 8 8 8 8 8 11 12 12 11
1 5 2 1 1 2 4 3 5 4 5 5 5 5 6 5 5 5 5 7 8 8 8 7 3 1 5 3 1 2 3 7 9 8 5 4 2 4 6 6 6 7 8 8 8 8 7 8 10 9 12 11 10 10
4 2 2 2 4 3 4 2 4 4 4 3 4 4 4 3 2 4 5 6 5 6 4 2 2 4 6 3 3 1 5 9 8 4 3 3 4 5 5 6 6 6 7 8 9 9 9 9 8 9 8 10 10 10
2 2 3 4 5 3 3 3 4 4 2 4 5 4 3 1 3 4 4 4 4 3 5 5 4 5 4 3 1 4 7 7 5 1 2 1 6 6 6 7 7 7 7 8 9 9 7 9 6 10 10 10 9 9
2 3 3 4 3 3 4 3 3 5 5 6 4 5 3 2 3 4 2 3 3 4 3 5 4 6 5 6 4 7 6 3 3 2 3 2 5 5 6 7 7 7 6 8 8 9 11 7 8 9 9 10 11 12
3 5 4 2 2 4 3 4 5 5 4 4 5 3 2 3 4 4 2 3 2 1 2 2 2 4 5 7 7 7 5 4 4 2 3 4 5 4 6 7 7 7 6 7 8 10 10 10 10 11 11 11 7 11
4 4 4 2 2 2 3 6 8 5 5 3 3 3 3 3 3 3 2 1 2 1 2 2 2 1 5 5 4 3 3 1 3 3 5 4 5 4 4 6 9 7 6 8 8 10 11 12 12 12 11 9 8 7
4 3 4 4 4 4 5 5 4 4 4 2 3 2 3 4 3 3 4 3 2 1 2 2 0 1 3 4 3 4 5 5 6 7 6 6 5 6 8 9 10 4 8 9 10 10 11 11 11 11 10 8 6 5
4 3 3 4 5 5 6 5 4 1 2 3 4 3 3 3 5 6 5 3 2 3 2 4 2 2 3 3 4 3 4 6 8 11 12 9 8 8 9 10 10 9 9 8 12 9 9 8 9 8 7 6 4 2
5 7 4 5 5 6 4 5 5 3 4 4 4 5 5 4 5 6 4 3 4 3 2 3 3 2 2 4 5 4 3 4 3 3 6 7 10 10 11 11 11 10 9 10 10 9 4 9 7 6 4 3 2 3
2 4 5 6 5 5 5 6 7 7 8 8 7 7 8 7 6 4 2 2 3 2 3 4 2 2 2 2 4 6 6 5 4 1 5 10 10 10 11 11 11 10 10 10 10 9 8 6 5 5 6 3 1 3
4 6 4 5 6 4 3 5 6 7 7 8 9 8 6 5 6 2 3 3 3 2 5 1 2 2 3 3 3 1 5 5 7 6 11 9 10 12 12 11 11 10 10 10 9 8 6 5 5 3 3 5 4 2
6 6 6 7 5 5 4 4 4 5 6 7 7 8 8 7 7 1 3 3 4 3 2 1 2 2 3 4 4 4 2 6 10 9 9 12 12 11 10 10 9 10 12 9 8 7 6 3 3 3 1 1 4 3
Wind_Direction
295 299 319 331 327 333 331 329 329 324 322 314 312 312 322 336 358 328 6 4 326 289 289 256 255 264 250 235 280 32 276 176 243 257 269 276 264 271 267 268 276 273 256 239 232 247 244 242 272 232 11 95 149 213
310 326 323 327 328 330 326 326 325 320 316 314 304 292 292 308 336 311 282 345 313 256 292 315 276 267 258 273 301 245 295 298 317 282 253 275 273 271 272 274 285 259 250 266 271 256 274 316 284 58 317 272 246 308
317 316 318 320 322 322 322 321 316 313 315 314 308 291 271 274 252 267 303 328 268 269 278 238 227 211 223 233 240 253 228 239 244 319 304 291 269 291 271 276 289 271 265 273 274 257 263 258 245 241 284 271 275 288
308 308 311 311 311 313 316 315 316 314 309 311 308 298 273 256 265 246 260 333 293 310 282 271 175 230 229 221 228 235 263 268 279 299 281 266 263 254 260 268 281 270 296 268 268 257 263 262 261 267 268 275 257 281
296 299 299 299 301 304 308 311 315 320 312 305 299 285 280 259 261 262 262 239 239 296 320 304 307 154 183 225 224 230 237 245 256 262 245 264 272 290 263 270 261 254 257 253 252 259 261 256 256 257 260 266 266 288
299 298 301 302 299 300 303 306 314 318 320 315 304 290 268 252 241 281 229 141 199 208 282 291 1 274 237 226 229 231 233 237 228 239 247 250 206 191 255 253 266 259 266 278 266 263 264 265 263 258 264 268 277 276
300 305 304 304 303 301 301 303 306 311 313 314 297 278 261 207 213 260 338 58 167 174 255 277 273 188 260 271 252 241 230 222 223 189 232 240 231 194 240 250 266 266 258 254 256 272 250 256 260 253 246 251 254 256
297 299 298 302 303 305 300 301 301 303 307 312 287 261 265 199 253 264 185 167 174 232 247 280 281 268 115 290 295 124 194 181 195 221 238 236 200 214 252 248 259 264 269 257 249 241 249 248 247 241 235 233 240 253
292 292 295 298 302 306 301 302 303 304 301 299 298 286 233 219 214 49 137 154 176 300 282 241 280 317 35 280 294 243 204 213 156 219 229 255 221 241 247 282 289 282 275 279 254 218 236 222 225 221 224 224 231 247
292 290 290 294 298 303 303 306 303 297 305 291 254 220 188 174 97 135 195 144 171 214 243 255 289 269 316 323 292 309 176 262 268 236 306 233 251 263 283 301 305 311 302 318 99 147 196 211 204 208 211 222 232 242
296 293 292 294 297 298 298 298 301 305 273 218 223 223 79 140 183 204 222 211 170 224 211 232 241 282 311 282 319 297 318 271 272 295 273 265 272 312 328 330 328 344 21 49 67 132 179 190 192 196 203 207 218 217
298 292 291 294 295 296 295 293 286 219 287 5 332 278 199 217 216 235 199 178 220 233 211 242 285 257 283 268 259 245 253 224 265 351 259 300 308 329 335 335 335 354 21 55 89 122 199 247 211 206 230 212 182 136
295 291 293 293 289 294 293 294 225 160 174 246 229 235 210 165 224 224 191 189 210 203 211 228 286 243 167 216 254 260 267 254 248 270 308 309 331 332 340 342 344 348 11 24 57 98 173 161 166 180 173 142 137 145
299 297 292 289 284 285 282 284 189 161 222 236 200 226 223 187 229 203 235 167 89 270 302 308 292 229 107 226 252 259 280 291 283 21 311 330 333 335 347 354 355 355 1 11 24 50 50 226 181 133 99 104 123 113
307 298 293 287 276 267 257 219 152 182 217 257 243 239 215 246 259 235 259 268 251 288 291 290 241 239 113 267 239 291 247 280 31 1 308 332 328 336 353 357 359 358 3 11 9 46 35 73 93 82 81 78 88 97
314 298 301 321 309 180 127 127 136 185 231 238 249 257 229 258 237 206 222 251 329 307 280 241 270 232 201 270 334 354 344 355 339 325 311 321 325 335 342 6 17 12 19 29 32 40 43 52 85 81 83 81 83 88
302 255 359 335 125 122 126 126 144 215 261 237 229 239 278 288 288 291 289 276 25 285 272 295 261 30 221 259 247 231 324 311 300 298 295 302 323 324 330 12 13 24 24 32 40 44 59 62 71 71 76 76 81 87
255 48 345 327 134 139 191 217 232 251 249 241 255 270 261 268 283 267 261 259 261 252 261 277 322 241 245 264 301 263 269 285 303 296 297 321 326 324 352 17 20 21 29 44 60 50 53 75 80 76 83 88 91 88
287 292 306 272 172 208 225 203 227 263 255 274 271 268 263 270 262 263 266 257 230 265 276 236 250 236 206 209 226 261 265 287 305 311 292 308 355 318 11 26 36 32 33 34 32 64 63 58 75 93 107 112 104 103
277 268 269 210 162 188 240 204 204 255 268 320 270 267 264 266 277 261 237 212 194 199 206 226 243 271 305 126 256 180 242 300 292 320 347 311 58 338 36 22 21 22 49 56 53 19 73 74 67 75 88 83 95 92
101 114 119 110 138 226 266 255 227 236 284 270 313 323 283 262 241 238 219 182 204 220 224 231 255 274 194 159 147 192 275 294 308 289 301 340 9 75 54 51 37 44 51 53 60 69 60 70 67 71 82 86 90 93
112 101 109 154 203 211 253 243 269 308 263 306 305 247 268 258 242 202 169 202 222 221 224 255 293 215 184 229 148 192 294 298 294 289 226 241 221 79 50 36 47 63 60 64 70 78 74 75 85 86 96 91 84 85
117 147 150 179 231 224 266 212 236 240 263 279 264 248 230 229 181 165 225 218 222 203 215 236 197 193 186 165 109 53 283 300 297 292 195 170 94 85 74 53 56 67 82 74 75 77 78 84 74 92 93 98 95 93
143 200 226 208 205 255 226 222 218 248 209 252 240 261 245 230 164 233 249 174 174 149 181 165 182 151 139 120 272 257 278 294 286 243 48 102 107 87 71 75 73 72 88 93 92 96 105 97 101 95 102 106 102 101
174 223 221 242 213 233 253 258 229 238 236 230 253 248 217 196 232 210 281 109 165 189 129 154 194 197 177 164 237 247 266 282 296 268 168 109 116 125 97 86 80 83 109 111 108 105 109 125 135 125 110 104 106 106
227 200 208 225 195 227 220 249 232 232 250 252 233 259 252 247 238 148 84 5 38 307 109 141 193 170 176 152 201 251 254 230 242 192 126 131 144 117 106 109 110 96 100 113 124 126 125 121 113 107 106 103 101 107
244 231 202 225 267 284 270 250 251 276 270 250 247 257 232 235 78 58 15 38 42 11 26 43 339 123 119 148 201 156 94 116 263 125 116 126 133 108 109 106 112 113 117 118 121 122 125 127 122 119 119 113 109 104
255 277 230 177 209 224 261 278 251 228 243 294 270 290 345 14 77 29 21 14 346 319 52 88 211 61 100 122 124 149 159 152 129 121 115 110 95 89 89 97 106 93 121 115 119 124 125 125 127 128 128 121 110 84
234 222 207 232 220 244 227 242 268 287 313 300 337 9 2 350 347 330 342 331 221 243 214 127 134 164 134 152 143 171 190 163 159 158 149 136 130 116 116 128 137 127 125 112 43 74 115 125 128 124 124 116 112 103
240 190 225 239 224 228 224 212 262 311 305 321 312 291 277 291 296 314 305 235 230 216 161 123 130 205 178 193 151 166 172 188 239 159 150 141 128 135 143 144 136 139 141 134 124 122 115 137 145 155 142 84 64 129
249 214 234 241 260 255 262 268 269 269 268 270 268 270 289 315 311 312 274 248 227 209 209 142 163 179 218 205 206 189 170 167 131 61 82 115 137 140 149 147 147 150 152 149 152 148 149 139 123 104 96 97 163 284
211 218 235 247 257 254 268 255 244 245 252 242 245 249 250 256 280 270 115 190 174 169 90 77 255 199 211 235 256 196 325 156 148 142 144 134 134 143 149 151 152 153 154 155 151 141 148 143 123 160 148 156 187 144
219 227 229 257 254 238 207 224 235 255 229 241 244 241 237 244 262 257 151 229 64 39 45 28 85 330 285 264 223 162 206 152 104 98 74 111 127 141 144 149 148 151 157 155 152 148 165 96 350 331 28 118 173 165